This demonstration page uses our WeatherBlox Daily Observations layout. Learn more.

Left ArrowRight Arrow

53.62937, 11.41316

Hourly Observations for January 1, 2016

Temp ( °F °C ) Dew Point ( °F °C ) Humidity (%) Winds ( mph kmh ) Pressure ( in mb ) Visibility ( mi km ) Precip ( " mm )
9:50 am 09:50 Mostly Cloudy with Mist and Fog 36 2 36 2 100 100 VRB 1 2 30.27 1025 2 3 N/A
10:20 am 10:20 Partly Cloudy with Mist and Fog 36 2 36 2 100 100 SSE 2 4 30.27 1025 2 3 N/A
10:50 am 10:50 Partly Cloudy with Mist and Fog 36 2 34 1 93 93 S 3 6 30.27 1025 2 3 N/A
11:20 am 11:20 Partly Cloudy with Mist and Fog 36 2 36 2 100 100 VRB 2 4 30.27 1025 2 3 N/A
11:50 am 11:50 Mostly Cloudy with Mist and Fog 37 3 36 2 93 93 S 5 7 30.27 1025 2 3 N/A
12:20 pm 12:20 Partly Cloudy with Mist and Fog 37 3 37 3 100 100 S 3 6 30.27 1025 2 3 N/A
12:50 pm 12:50 Partly Cloudy with Mist and Fog 37 3 37 3 100 100 S 3 6 30.27 1025 2 3 N/A
1:20 pm 13:20 Partly Cloudy with Mist and Fog 39 4 39 4 100 100 S 2 4 30.27 1025 2 4 N/A
1:50 pm 13:50 Partly Cloudy with Mist and Fog 39 4 37 3 93 93 S 3 6 30.27 1025 2 4 N/A
2:20 pm 14:20 Mostly Cloudy with Mist and Fog 39 4 37 3 93 93 SSW 3 6 30.27 1025 3 5 N/A
2:50 pm 14:50 Mostly Cloudy with Mist and Fog 39 4 39 4 100 100 SW 2 4 30.27 1025 3 5 N/A
3:20 pm 15:20 Mostly Cloudy with Mist and Fog 39 4 39 4 100 100 VRB 1 2 30.27 1025 3 5 N/A
3:50 pm 15:50 Mostly Cloudy with Mist and Fog 39 4 37 3 93 93 VRB 2 4 30.27 1025 2 3 N/A
4:20 pm 16:20 Mostly Cloudy with Mist and Fog 39 4 37 3 93 93 VRB 1 2 30.27 1025 2 3 N/A
4:50 pm 16:50 Mostly Cloudy with Mist and Fog 39 4 37 3 93 93 VRB 2 4 30.27 1025 2 3 N/A
5:20 pm 17:20 Mostly Cloudy with Mist and Fog 39 4 37 3 93 93 VRB 1 2 30.27 1025 2 3 N/A
5:50 pm 17:50 Mostly Cloudy with Mist and Fog 39 4 37 3 93 93 WSW 2 4 30.27 1025 2 3 N/A
6:20 pm 18:20 Mostly Cloudy with Mist and Fog 39 4 37 3 93 93 VRB 1 2 30.27 1025 1 2 N/A
6:50 pm 18:50 Mostly Cloudy with Fog 39 4 37 3 93 93 VRB 2 4 30.27 1025 0 1 N/A
7:20 pm 19:20 Mostly Cloudy with Fog 39 4 37 3 93 93 VRB 1 2 30.27 1025 0 0 N/A
7:50 pm 19:50 Mostly Cloudy with Fog 39 4 37 3 93 93 SE 2 4 30.27 1025 0 0 N/A

Powered by AerisWeather